LAN100 SCEL-SCSE

Flight info

Callsign LAN100
Flight time 0h 41m
Altitude 28000
Route DONTI5B DONTI UQ802 KUGAP KUGAP5
Aircraft A320/M-SDE3FGHIRWY/LB1

Departure

Time 2026-04-14 16:12
Airport Comodoro Arturo Merino Benítez International Airport (SCEL)

Arrival

Time 2026-04-14 16:54
Airport La Florida Airport (SCSE)
Time Latitude Longitude Altitude Speed Heading
2026-04-14 15:38 -33.39565 -70.78966 1565 ft 0 kts 184°
2026-04-14 16:02 -33.39553 -70.78965 1564 ft 4 kts 181°
2026-04-14 16:02 -33.39526 -70.78967 1564 ft 4 kts 168°
2026-04-14 16:03 -33.39502 -70.78977 1564 ft 4 kts 135°
2026-04-14 16:03 -33.39494 -70.78995 1564 ft 1 kts 88°
2026-04-14 16:03 -33.39494 -70.79000 1564 ft 0 kts 88°
2026-04-14 16:05 -33.39494 -70.78998 1564 ft 2 kts 88°
2026-04-14 16:06 -33.39492 -70.78949 1564 ft 6 kts 88°
2026-04-14 16:06 -33.39485 -70.78917 1564 ft 13 kts 59°
2026-04-14 16:06 -33.39387 -70.78898 1564 ft 15 kts 358°
2026-04-14 16:06 -33.39318 -70.78891 1564 ft 6 kts 41°
2026-04-14 16:07 -33.39305 -70.78836 1564 ft 7 kts 84°
2026-04-14 16:07 -33.39280 -70.78802 1564 ft 9 kts 19°
2026-04-14 16:07 -33.39207 -70.78801 1564 ft 10 kts 358°
2026-04-14 16:07 -33.39104 -70.78807 1564 ft 21 kts 357°
2026-04-14 16:08 -33.38933 -70.78816 1564 ft 26 kts 357°
2026-04-14 16:08 -33.38750 -70.78825 1564 ft 27 kts 357°
2026-04-14 16:08 -33.38559 -70.78835 1564 ft 28 kts 357°
2026-04-14 16:08 -33.38367 -70.78845 1564 ft 27 kts 358°
2026-04-14 16:09 -33.38180 -70.78855 1564 ft 25 kts 357°
2026-04-14 16:09 -33.38005 -70.78865 1565 ft 26 kts 357°
2026-04-14 16:09 -33.37820 -70.78874 1564 ft 27 kts 357°
2026-04-14 16:09 -33.37673 -70.78882 1564 ft 16 kts
2026-04-14 16:10 -33.37625 -70.78812 1564 ft 10 kts 85°
2026-04-14 16:10 -33.37624 -70.78789 1564 ft 0 kts 86°
2026-04-14 16:10 -33.37623 -70.78774 1564 ft 7 kts 86°
2026-04-14 16:10 -33.37620 -70.78716 1564 ft 6 kts 86°
2026-04-14 16:11 -33.37629 -70.78678 1565 ft 6 kts 134°
2026-04-14 16:11 -33.37659 -70.78670 1565 ft 0 kts 174°
2026-04-14 16:11 -33.37666 -70.78669 1565 ft 7 kts 174°
2026-04-14 16:11 -33.37938 -70.78653 1564 ft 77 kts 177°
2026-04-14 16:12 -33.38693 -70.78610 1564 ft 138 kts 177°
2026-04-14 16:12 -33.39799 -70.78555 1775 ft 167 kts 175°
2026-04-14 16:12 -33.40970 -70.78485 2499 ft 171 kts 173°
2026-04-14 16:12 -33.42214 -70.78350 2885 ft 193 kts 174°
2026-04-14 16:13 -33.43682 -70.78228 2976 ft 229 kts 177°
2026-04-14 16:13 -33.45380 -70.78154 3277 ft 261 kts 177°
2026-04-14 16:13 -33.47287 -70.78044 3887 ft 274 kts 177°
2026-04-14 16:13 -33.49201 -70.78265 4813 ft 280 kts 200°
2026-04-14 16:14 -33.50861 -70.79484 5675 ft 283 kts 227°
2026-04-14 16:14 -33.51920 -70.81447 6639 ft 281 kts 252°
2026-04-14 16:14 -33.52206 -70.83709 7514 ft 279 kts 276°
2026-04-14 16:14 -33.51703 -70.85944 8402 ft 278 kts 295°
2026-04-14 16:15 -33.50947 -70.88089 9334 ft 280 kts 295°
2026-04-14 16:15 -33.50180 -70.90249 10218 ft 283 kts 294°
2026-04-14 16:15 -33.49383 -70.92494 10635 ft 304 kts 294°
2026-04-14 16:15 -33.48491 -70.94881 11008 ft 322 kts 300°
2026-04-14 16:16 -33.47182 -70.97086 11700 ft 327 kts 313°
2026-04-14 16:16 -33.45455 -70.98871 12478 ft 331 kts 326°
2026-04-14 16:16 -33.43383 -71.00120 13252 ft 336 kts 339°
2026-04-14 16:16 -33.41150 -71.01001 14022 ft 339 kts 340°
2026-04-14 16:17 -33.38898 -71.01878 14669 ft 342 kts 340°
2026-04-14 16:17 -33.36653 -71.02753 15300 ft 346 kts 340°
2026-04-14 16:17 -33.34348 -71.03655 15915 ft 350 kts 340°
2026-04-14 16:17 -33.32012 -71.04569 16543 ft 355 kts 340°
2026-04-14 16:18 -33.29649 -71.05493 17184 ft 359 kts 339°
2026-04-14 16:18 -33.27261 -71.06427 17812 ft 363 kts 339°
2026-04-14 16:18 -33.24844 -71.07372 18388 ft 368 kts 339°
2026-04-14 16:18 -33.22382 -71.08334 18862 ft 374 kts 339°
2026-04-14 16:19 -33.19929 -71.09295 19365 ft 378 kts 339°
2026-04-14 16:19 -33.17419 -71.10275 19892 ft 381 kts 339°
2026-04-14 16:19 -33.14886 -71.11259 20409 ft 385 kts 339°
2026-04-14 16:19 -33.12320 -71.12256 20896 ft 388 kts 339°
2026-04-14 16:20 -33.09764 -71.13250 21401 ft 391 kts 339°
2026-04-14 16:20 -33.07134 -71.14273 21897 ft 395 kts 338°
2026-04-14 16:20 -33.04512 -71.15293 22412 ft 398 kts 338°
2026-04-14 16:20 -33.01868 -71.16323 22908 ft 401 kts 338°
2026-04-14 16:21 -32.99226 -71.17351 23370 ft 405 kts 338°
2026-04-14 16:21 -32.96514 -71.18378 23811 ft 410 kts 341°
2026-04-14 16:21 -32.93678 -71.18985 24203 ft 418 kts 352°
2026-04-14 16:21 -32.90769 -71.19094 24604 ft 422 kts 355°
2026-04-14 16:22 -32.87828 -71.19147 25024 ft 424 kts 355°
2026-04-14 16:22 -32.84861 -71.19199 25431 ft 426 kts 355°
2026-04-14 16:22 -32.81880 -71.19253 25834 ft 428 kts 355°
2026-04-14 16:22 -32.78921 -71.19305 26229 ft 431 kts 355°
2026-04-14 16:23 -32.75913 -71.19360 26605 ft 433 kts 355°
2026-04-14 16:23 -32.72877 -71.19416 26964 ft 436 kts 355°
2026-04-14 16:23 -32.69841 -71.19473 27331 ft 438 kts 355°
2026-04-14 16:23 -32.66780 -71.19528 27705 ft 440 kts 355°
2026-04-14 16:24 -32.63747 -71.19582 28052 ft 442 kts 355°
2026-04-14 16:24 -32.57663 -71.19689 28168 ft 425 kts 355°
2026-04-14 16:25 -32.51788 -71.19797 28165 ft 419 kts 355°
2026-04-14 16:25 -32.45979 -71.19907 28167 ft 419 kts 355°
2026-04-14 16:26 -32.40138 -71.20017 28166 ft 419 kts 355°
2026-04-14 16:26 -32.34334 -71.20125 28166 ft 419 kts 355°
2026-04-14 16:27 -32.28491 -71.20235 28165 ft 419 kts 355°
2026-04-14 16:27 -32.22656 -71.20342 28141 ft 419 kts 356°
2026-04-14 16:28 -32.16847 -71.20437 28137 ft 420 kts 356°
2026-04-14 16:28 -32.11004 -71.20539 28136 ft 420 kts 355°
2026-04-14 16:29 -32.05156 -71.20647 28138 ft 420 kts 355°
2026-04-14 16:29 -31.99303 -71.20760 28121 ft 420 kts 355°
2026-04-14 16:30 -31.93477 -71.20869 28125 ft 421 kts 356°
2026-04-14 16:30 -31.87607 -71.20972 28134 ft 422 kts 356°
2026-04-14 16:31 -31.81717 -71.21069 28125 ft 422 kts 356°
2026-04-14 16:31 -31.75834 -71.21112 28128 ft 423 kts 358°
2026-04-14 16:32 -31.69944 -71.20788 28122 ft 424 kts
2026-04-14 16:32 -31.64076 -71.20321 28123 ft 425 kts
2026-04-14 16:33 -31.58168 -71.19899 28118 ft 425 kts
2026-04-14 16:33 -31.52246 -71.19542 27912 ft 422 kts 360°
2026-04-14 16:33 -31.49359 -71.19380 27667 ft 419 kts 360°
2026-04-14 16:34 -31.46457 -71.19218 27402 ft 417 kts 360°
2026-04-14 16:34 -31.43554 -71.19050 27155 ft 416 kts
2026-04-14 16:34 -31.40669 -71.18878 26904 ft 415 kts
2026-04-14 16:34 -31.37804 -71.18703 26606 ft 409 kts
2026-04-14 16:35 -31.34967 -71.18526 26138 ft 406 kts
2026-04-14 16:35 -31.32146 -71.18353 25666 ft 404 kts
2026-04-14 16:35 -31.29345 -71.18184 25190 ft 401 kts
2026-04-14 16:35 -31.26566 -71.18015 24719 ft 399 kts
2026-04-14 16:36 -31.23797 -71.17848 24237 ft 397 kts
2026-04-14 16:36 -31.21034 -71.17683 23758 ft 396 kts
2026-04-14 16:36 -31.18319 -71.17523 23198 ft 394 kts
2026-04-14 16:36 -31.15593 -71.17360 22713 ft 391 kts
2026-04-14 16:37 -31.12885 -71.17199 22223 ft 389 kts
2026-04-14 16:37 -31.10189 -71.17040 21733 ft 387 kts
2026-04-14 16:37 -31.07501 -71.16878 21243 ft 385 kts
2026-04-14 16:37 -31.04836 -71.16715 20749 ft 383 kts
2026-04-14 16:38 -31.02181 -71.16555 20260 ft 382 kts
2026-04-14 16:38 -30.99527 -71.16396 19767 ft 381 kts
2026-04-14 16:38 -30.96886 -71.16237 19281 ft 380 kts
2026-04-14 16:38 -30.94251 -71.16078 18816 ft 378 kts
2026-04-14 16:39 -30.91630 -71.15921 18393 ft 376 kts
2026-04-14 16:39 -30.89027 -71.15764 17911 ft 373 kts
2026-04-14 16:39 -30.86463 -71.15623 17471 ft 370 kts
2026-04-14 16:39 -30.83885 -71.15471 17076 ft 366 kts
2026-04-14 16:40 -30.81390 -71.15320 16664 ft 362 kts
2026-04-14 16:40 -30.78893 -71.15168 16434 ft 353 kts
2026-04-14 16:40 -30.76472 -71.15020 16297 ft 343 kts
2026-04-14 16:40 -30.74083 -71.14873 15877 ft 347 kts
2026-04-14 16:41 -30.71626 -71.14726 15124 ft 357 kts
2026-04-14 16:41 -30.69140 -71.14580 14619 ft 357 kts
2026-04-14 16:41 -30.66660 -71.14433 14211 ft 355 kts
2026-04-14 16:41 -30.64188 -71.14285 13676 ft 355 kts
2026-04-14 16:42 -30.61762 -71.14138 13264 ft 352 kts
2026-04-14 16:42 -30.59328 -71.13991 12858 ft 347 kts
2026-04-14 16:42 -30.56928 -71.13847 12470 ft 343 kts
2026-04-14 16:42 -30.54551 -71.13705 12070 ft 339 kts
2026-04-14 16:43 -30.52194 -71.13567 11687 ft 336 kts
2026-04-14 16:43 -30.49873 -71.13431 11304 ft 332 kts
2026-04-14 16:43 -30.47603 -71.13299 10934 ft 329 kts
2026-04-14 16:43 -30.45326 -71.13169 10555 ft 326 kts
2026-04-14 16:44 -30.43092 -71.13039 10404 ft 314 kts
2026-04-14 16:44 -30.40970 -71.12912 10194 ft 298 kts
2026-04-14 16:44 -30.38925 -71.12788 9960 ft 295 kts
2026-04-14 16:45 -30.34844 -71.12537 9251 ft 290 kts
2026-04-14 16:45 -30.32836 -71.12418 8932 ft 287 kts
2026-04-14 16:45 -30.30845 -71.12303 8620 ft 285 kts
2026-04-14 16:45 -30.28871 -71.12188 8308 ft 283 kts
2026-04-14 16:46 -30.26907 -71.12071 7999 ft 281 kts
2026-04-14 16:46 -30.24984 -71.11957 7817 ft 272 kts
2026-04-14 16:46 -30.23091 -71.11833 7415 ft 272 kts
2026-04-14 16:46 -30.21215 -71.11678 7109 ft 269 kts
2026-04-14 16:47 -30.19360 -71.11513 6821 ft 266 kts
2026-04-14 16:47 -30.17550 -71.11350 6530 ft 263 kts
2026-04-14 16:47 -30.15736 -71.11189 6230 ft 260 kts
2026-04-14 16:47 -30.13952 -71.11034 5947 ft 255 kts
2026-04-14 16:48 -30.12216 -71.10747 5669 ft 249 kts 18°
2026-04-14 16:48 -30.10662 -71.09926 5392 ft 244 kts 32°
2026-04-14 16:48 -30.09224 -71.08913 5135 ft 239 kts 32°
2026-04-14 16:48 -30.08287 -71.08257 4959 ft 235 kts 32°
2026-04-14 16:49 -30.06479 -71.06997 4601 ft 220 kts 32°
2026-04-14 16:49 -30.05617 -71.06396 4437 ft 217 kts 32°
2026-04-14 16:49 -30.04331 -71.05503 4195 ft 216 kts 32°
2026-04-14 16:49 -30.02953 -71.04819 3914 ft 216 kts 15°
2026-04-14 16:50 -30.01487 -71.04613 3649 ft 211 kts 359°
2026-04-14 16:50 -30.00051 -71.04865 3391 ft 208 kts 343°
2026-04-14 16:50 -29.98760 -71.05520 3151 ft 200 kts 329°
2026-04-14 16:50 -29.97683 -71.06510 2875 ft 196 kts 313°
2026-04-14 16:51 -29.96883 -71.07745 2621 ft 188 kts 298°
2026-04-14 16:51 -29.96317 -71.09053 2392 ft 176 kts 295°
2026-04-14 16:51 -29.95799 -71.10259 2168 ft 160 kts 295°
2026-04-14 16:51 -29.95319 -71.11374 1953 ft 151 kts 295°
2026-04-14 16:52 -29.94865 -71.12435 1751 ft 144 kts 294°
2026-04-14 16:52 -29.94432 -71.13445 1565 ft 142 kts 294°
2026-04-14 16:52 -29.93993 -71.14470 1378 ft 142 kts 295°
2026-04-14 16:52 -29.93552 -71.15497 1187 ft 144 kts 297°
2026-04-14 16:53 -29.93108 -71.16530 1005 ft 143 kts 298°
2026-04-14 16:53 -29.92666 -71.17559 801 ft 143 kts 298°
2026-04-14 16:53 -29.92244 -71.18592 579 ft 141 kts 298°
2026-04-14 16:53 -29.91806 -71.19561 479 ft 116 kts 297°
2026-04-14 16:54 -29.91581 -71.20100 473 ft 45 kts 297°
2026-04-14 16:54 -29.91537 -71.20251 481 ft 14 kts 250°
2026-04-14 16:54 -29.91596 -71.20299 478 ft 0 kts 209°
2026-04-14 16:54 -29.91597 -71.20299 478 ft 0 kts 209°
2026-04-14 16:55 -29.91621 -71.20288 478 ft 5 kts 150°
2026-04-14 16:55 -29.91642 -71.20255 478 ft 5 kts 118°
2026-04-14 16:55 -29.91656 -71.20225 478 ft 4 kts 118°
2026-04-14 16:55 -29.91660 -71.20216 472 ft 0 kts 118°
2026-04-14 16:56 -29.91669 -71.20208 475 ft 1 kts 145°
2026-04-14 16:56 -29.91684 -71.20202 478 ft 4 kts 167°
2026-04-14 16:56 -29.91704 -71.20206 477 ft 2 kts 196°
2026-04-14 16:56 -29.91716 -71.20212 479 ft 2 kts 204°
2026-04-14 16:57 -29.91722 -71.20215 480 ft 0 kts 204°